TimeCDT,TemperatureF,Dew PointF,Humidity,Sea Level PressureIn,VisibilityMPH,Wind Direction,Wind SpeedMPH,Gust SpeedMPH,PrecipitationIn,Events,Conditions,WindDirDegrees,DateUTC
12:56 AM,55.9,44.1,64,30.04,10.0,ESE,12.7,-,N/A,,Clear,110,2013-03-10 06:56:00
1:56 AM,55.0,46.9,74,30.02,10.0,SE,9.2,-,N/A,,Clear,130,2013-03-10 07:56:00
3:56 AM,55.9,48.0,75,30.00,10.0,ESE,10.4,-,N/A,,Clear,120,2013-03-10 08:56:00
4:56 AM,57.0,48.0,72,30.01,10.0,ESE,12.7,-,N/A,,Clear,120,2013-03-10 09:56:00
5:56 AM,55.9,45.0,67,30.02,10.0,ESE,9.2,-,N/A,,Clear,110,2013-03-10 10:56:00
6:56 AM,54.0,44.1,69,30.01,10.0,ESE,9.2,-,N/A,,Clear,110,2013-03-10 11:56:00
7:43 AM,60.8,53.6,77,30.07,10.0,SE,15.0,23.0,N/A,,Mostly Cloudy,130,2013-03-10 12:43:00
7:56 AM,60.1,54.0,80,30.03,10.0,ESE,16.1,-,N/A,,Overcast,120,2013-03-10 12:56:00
8:56 AM,62.1,55.0,78,30.03,10.0,SE,17.3,26.5,N/A,,Overcast,130,2013-03-10 13:56:00
9:05 AM,62.6,55.4,77,30.08,10.0,SE,18.4,27.6,N/A,,Overcast,140,2013-03-10 14:05:00
9:56 AM,64.9,55.0,70,30.06,10.0,SSE,17.3,26.5,N/A,,Overcast,150,2013-03-10 14:56:00
10:56 AM,66.0,55.9,70,30.09,10.0,SE,17.3,21.9,N/A,,Overcast,140,2013-03-10 15:56:00
11:21 AM,66.2,55.4,68,30.12,10.0,SSE,18.4,25.3,N/A,,Overcast,150,2013-03-10 16:21:00
11:56 AM,69.1,55.9,63,30.08,10.0,SE,16.1,24.2,N/A,,Overcast,140,2013-03-10 16:56:00
12:04 PM,68.0,55.4,64,30.12,10.0,SSE,16.1,24.2,N/A,,Overcast,150,2013-03-10 17:04:00
12:56 PM,72.0,57.0,59,30.05,10.0,SSE,19.6,29.9,N/A,,Mostly Cloudy,160,2013-03-10 17:56:00
1:13 PM,73.4,57.2,57,30.08,10.0,SSE,20.7,32.2,N/A,,Mostly Cloudy,160,2013-03-10 18:13:00
1:22 PM,71.6,57.2,60,30.08,10.0,SSE,16.1,27.6,N/A,,Mostly Cloudy,150,2013-03-10 18:22:00
1:40 PM,71.6,55.4,57,30.08,10.0,SE,21.9,29.9,N/A,,Overcast,140,2013-03-10 18:40:00
1:56 PM,70.0,55.9,61,30.04,10.0,SSE,19.6,28.8,N/A,,Overcast,150,2013-03-10 18:56:00
2:56 PM,71.1,57.0,61,30.03,10.0,SSE,19.6,28.8,N/A,,Overcast,160,2013-03-10 19:56:00
3:56 PM,72.0,57.0,59,30.02,10.0,SSE,19.6,25.3,N/A,,Overcast,150,2013-03-10 20:56:00
4:56 PM,70.0,57.0,63,30.00,10.0,SE,16.1,-,N/A,,Overcast,130,2013-03-10 21:56:00
5:56 PM,68.0,57.0,68,29.99,10.0,SSE,18.4,-,N/A,,Mostly Cloudy,150,2013-03-10 22:56:00
6:56 PM,64.0,55.9,75,29.99,10.0,SE,11.5,19.6,N/A,,Clear,140,2013-03-10 23:56:00
7:56 PM,62.1,55.9,80,29.98,10.0,SE,13.8,20.7,N/A,,Clear,130,2013-03-11 00:56:00
8:56 PM,60.1,55.9,86,29.99,10.0,SE,11.5,-,N/A,,Partly Cloudy,130,2013-03-11 01:56:00
9:56 PM,60.1,55.9,86,29.99,10.0,SSE,6.9,-,N/A,,Clear,150,2013-03-11 02:56:00
10:56 PM,59.0,55.9,90,29.98,10.0,SE,11.5,-,N/A,,Clear,130,2013-03-11 03:56:00
11:41 PM,59.0,55.4,88,30.00,10.0,SSE,6.9,-,N/A,,Mostly Cloudy,150,2013-03-11 04:41:00
11:56 PM,60.1,57.0,90,29.96,10.0,SSE,5.8,-,N/A,,Overcast,160,2013-03-11 04:56:00
12:56 AM,61.0,57.9,90,29.93,10.0,SSE,9.2,-,N/A,,Overcast,150,2013-03-11 05:56:00